EW4498 Weather Reports


Display with metric or nautical units.
time (UTC)temp
F
wind
direction
speed
MPH
gust
MPH
rain 1hr
in
rain 24hr
in
rain mn
in
humidity
%
barometer
mb
20260506211528 41 176 0.0 0.0 0.00 0.00 0.00 81 1013.0
20260506210025 42 176 0.0 0.0 0.00 0.00 0.00 80 1012.9
20260506204640 43 176 0.0 0.0 0.00 0.00 0.00 80 1012.9
20260506203038 44 176 0.0 0.0 0.00 0.00 0.00 80 1012.8
20260506201637 44 176 0.0 3.0 0.00 0.00 0.00 79 1012.7
20260506200045 44 177 0.0 3.0 0.00 0.00 0.00 78 1012.7
20260506194505 45 176 0.0 3.0 0.00 0.00 0.00 76 1012.6
20260506193107 45 180 1.0 3.0 0.00 0.00 0.00 75 1012.6
20260506191535 46 167 0.0 1.0 0.00 0.00 0.00 73 1012.5
20260506190137 47 163 2.0 5.0 0.00 0.00 0.00 71 1012.3
20260506184624 47 128 3.0 7.0 0.00 0.00 0.00 70 1012.2
20260506183038 48 180 2.0 5.0 0.00 0.00 0.00 69 1012.0
20260506181517 48 159 5.0 8.0 0.00 0.00 0.00 67 1011.8
20260506180055 49 158 3.0 8.0 0.00 0.00 0.00 66 1011.6
20260506174546 49 121 5.0 9.0 0.00 0.00 0.00 63 1011.6
20260506173142 50 128 2.0 7.0 0.00 0.00 0.00 63 1011.4
20260506171550 50 115 4.0 11.0 0.00 0.00 0.00 59 1011.3
20260506170007 51 152 4.0 10.0 0.00 0.00 0.00 57 1011.1
20260506164623 51 155 5.0 12.0 0.00 0.00 0.00 55 1011.1
20260506163022 52 115 3.0 11.0 0.00 0.00 0.00 52 1011.1
20260506161559 53 129 7.0 11.0 0.00 0.00 0.00 49 1011.0
20260506160049 52 118 7.0 16.0 0.00 0.00 0.00 45 1011.1
20260506154647 53 101 8.0 14.0 0.00 0.00 0.00 40 1011.1
20260506153042 54 144 9.0 17.0 0.00 0.00 0.00 39 1011.1
20260506151645 54 149 6.0 16.0 0.00 0.00 0.00 40 1011.0
20260506150043 55 158 10.0 17.0 0.00 0.00 0.00 36 1011.1
20260506144641 55 152 6.0 15.0 0.00 0.00 0.00 37 1011.0
20260506143056 55 124 8.0 16.0 0.00 0.00 0.00 40 1010.9
20260506141547 55 158 6.0 13.0 0.00 0.00 0.00 43 1010.9
20260506140144 54 145 7.0 15.0 0.00 0.00 0.00 44 1010.9
20260506134600 55 114 7.0 14.0 0.00 0.00 0.00 62 1010.7
20260506133102 56 110 8.0 16.0 0.00 0.00 0.00 60 1010.5
20260506131651 56 69 10.0 14.0 0.00 0.00 0.00 60 1010.4
20260506130047 57 79 6.0 12.0 0.00 0.00 0.00 65 1010.4
20260506124646 56 71 7.0 12.0 0.00 0.00 0.00 67 1010.3
20260506123046 56 90 6.0 12.0 0.00 0.00 0.00 64 1010.3
20260506121541 56 86 8.0 13.0 0.00 0.00 0.00 60 1010.1
20260506120150 56 98 6.0 13.0 0.00 0.00 0.00 59 1010.2
20260506114602 57 99 7.0 13.0 0.00 0.00 0.00 57 1010.1
20260506113044 56 85 5.0 12.0 0.00 0.00 0.00 57 1010.1
20260506111646 56 84 4.0 11.0 0.00 0.00 0.00 61 1010.1
20260506110058 56 92 7.0 13.0 0.00 0.00 0.00 56 1010.2
20260506104533 56 75 5.0 13.0 0.00 0.00 0.00 56 1010.2
20260506103029 56 118 6.0 15.0 0.00 0.00 0.00 54 1010.2
20260506101516 58 159 7.0 13.0 0.00 0.00 0.00 54 1010.1
20260506100014 59 39 6.0 11.0 0.00 0.00 0.00 40 1010.0
20260506094527 59 59 4.0 10.0 0.00 0.00 0.00 40 1010.0
20260506093020 59 60 4.0 10.0 0.00 0.00 0.00 43 1009.9
20260506091509 58 360 4.0 9.0 0.00 0.00 0.00 42 1010.0
20260506090005 57 79 5.0 11.0 0.00 0.00 0.00 44 1010.0
20260506084505 57 54 4.0 10.0 0.00 0.00 0.00 43 1009.9
20260506083001 56 46 4.0 8.0 0.00 0.00 0.00 45 1010.0
20260506081602 55 44 3.0 9.0 0.00 0.00 0.00 47 1010.0
20260506073053 53 66 3.0 9.0 0.00 0.00 0.00 51 1010.0
20260506071551 53 31 3.0 6.0 0.00 0.00 0.00 53 1010.1
20260506070104 52 44 3.0 10.0 0.00 0.00 0.00 49 1010.1
20260506061536 50 34 2.0 5.0 0.00 0.00 0.00 52 1010.1
20260506044517 42 13 0.0 1.0 0.00 0.00 0.00 70 1010.6
20260506043010 40 13 0.0 1.0 0.00 0.00 0.00 73 1010.6
20260506041502 39 13 0.0 3.0 0.00 0.00 0.00 76 1010.5
20260506040101 38 107 0.0 1.0 0.00 0.00 0.00 79 1010.4
20260506034558 38 107 0.0 3.0 0.00 0.00 0.00 79 1010.4
20260506033055 37 350 0.0 2.0 0.00 0.00 0.00 81 1010.4
20260506031601 37 349 0.0 1.0 0.00 0.00 0.00 81 1010.6
20260506030111 38 349 0.0 0.0 0.00 0.00 0.00 82 1010.7
20260506024552 38 10 0.0 2.0 0.00 0.00 0.00 82 1010.7
20260506023051 38 13 0.0 5.0 0.00 0.00 0.00 84 1010.8
20260506021550 37 5 0.0 3.0 0.00 0.00 0.00 87 1010.8
20260506020048 36 350 0.0 1.0 0.00 0.00 0.00 88 1010.9
20260506014553 35 349 0.0 1.0 0.00 0.00 0.00 88 1010.9
20260506013049 34 349 0.0 1.0 0.00 0.00 0.00 88 1011.1
20260506011553 34 349 0.0 0.0 0.00 0.00 0.00 86 1011.1
20260506010044 35 349 0.0 0.0 0.00 0.00 0.00 86 1011.1
20260506004618 35 349 0.0 0.0 0.00 0.00 0.00 85 1011.0
20260506003041 35 349 0.0 0.0 0.00 0.00 0.00 85 1010.9
20260506001539 36 349 0.0 0.0 0.00 0.00 0.00 85 1010.9
20260506000041 36 349 0.0 0.0 0.00 0.00 0.00 83 1010.9
20260505234604 37 349 0.0 0.0 0.00 0.00 0.00 83 1010.9
20260505233034 37 349 0.0 0.0 0.00 0.00 0.00 84 1010.8
20260505231536 37 349 0.0 0.0 0.00 0.00 0.00 80 1010.8
20260505230029 38 349 0.0 0.0 0.00 0.00 0.00 79 1010.8
20260505224530 39 349 0.0 0.0 0.00 0.00 0.00 77 1010.9
20260505223023 40 349 0.0 0.0 0.00 0.00 0.00 76 1011.0
20260505221522 40 349 0.0 0.0 0.00 0.00 0.00 75 1011.0
20260505220020 41 349 0.0 0.0 0.00 0.00 0.00 73 1011.0
20260505214521 41 349 0.0 1.0 0.00 0.00 0.00 71 1011.0
20260505213016 42 350 0.0 3.0 0.00 0.00 0.00 70 1011.0